Flag for United Kingdom Past Weather in Newport (Isle of Wight), England, United Kingdom — Yesterday and Last 2 Weeks

Now
40 °F

Chilly.


Feels Like: 31 °F
Forecast: N/A
Wind: 15 mph from East

Location: Saint Catherine's Point

Current Time: Jan 20, 2017 at 6:26:57 pm

Latest Report: Jan 20, 2017 at 5:00 pm


Visibility: N/A

Pressure: 30.40 "Hg

Humidity: 59%

Dew Point: 26 °F

Location of Newport (Isle of Wight)Location

Past Weather in Newport (Isle of Wight) — Graph

°F

Newport (Isle of Wight) Temperature Yesterday

Maximum temperature yesterday: 44 °F (at 1:00 pm)
Minimum temperature yesterday: 35 °F (at 5:00 am)
Average temperature yesterday: 38 °F

High & Low Weather Summary for the Past Weeks

 TemperatureHumidityPressure
High52 °F (Jan 7, 9:00 pm)100% (Jan 7, 3:00 am)30.66 "Hg (Jan 7, 3:00 am)
Low34 °F (Jan 12, 5:00 pm)52% (Jan 18, 3:00 pm)29.29 "Hg (Jan 12, 4:00 pm)
Average44 °F84%30.28 "Hg
* Reported Jan 5 5:00 pm — Jan 20 5:00 pm, Newport (Isle of Wight), Weather by CustomWeather, © 2017

Note: Actual official high and low records may vary slightly from our data, if they occured in-between our weather recording intervals... More about our weather records

Advertising

Newport (Isle of Wight) Weather History for the Previous 24 Hours

Scroll right to see more
 ConditionsComfort  
Time TempWeatherWind HumidityBarometerVisibility
5:00 pm
Fri, Jan 20
40 °FChilly.15 mph59%30.40 "HgN/A
4:00 pm41 °FQuite cool.15 mph62%30.40 "HgN/A
3:00 pm42 °FQuite cool.20 mph66%30.42 "HgN/A
2:00 pm43 °FQuite cool.21 mph69%30.42 "HgN/A
1:00 pm43 °FQuite cool.21 mph69%30.43 "HgN/A
12:00 pm42 °FQuite cool.14 mph68%30.46 "HgN/A
11:00 am41 °FQuite cool.14 mph68%30.48 "HgN/A
10:00 am39 °FChilly.15 mph71%30.48 "HgN/A
9:00 am36 °FChilly.14 mph80%30.48 "HgN/A
8:00 am35 °FChilly.14 mph85%30.48 "HgN/A
7:00 am36 °FChilly.16 mph84%30.48 "HgN/A
6:00 am35 °FChilly.14 mph86%30.48 "HgN/A
5:00 am35 °FChilly.13 mph85%30.49 "HgN/A
4:00 am36 °FChilly.15 mph85%30.50 "HgN/A
3:00 am36 °FChilly.14 mph83%30.50 "HgN/A
2:00 am37 °FChilly.15 mph82%30.51 "HgN/A
1:00 am37 °FChilly.13 mph82%30.52 "HgN/A
12:00 am38 °FChilly.13 mph79%30.53 "HgN/A
11:00 pm
Thu, Jan 19
37 °FChilly.16 mph70%30.53 "HgN/A
10:00 pm38 °FChilly.14 mph63%30.53 "HgN/A
9:00 pm38 °FChilly.14 mph62%30.53 "HgN/A
8:00 pm39 °FChilly.12 mph62%30.54 "HgN/A
7:00 pm39 °FChilly.14 mph67%30.53 "HgN/A
6:00 pm39 °FChilly.10 mph71%30.53 "HgN/A
Weather by CustomWeather, © 2017

See weather overviewHow to use our weather pages